Year,Month,Day,Hour,Minute,Value (Times are PST for temperature in C)
2019,04,02,00,00,9.30
2019,04,02,00,01,9.30
2019,04,02,00,02,9.30
2019,04,02,00,03,9.30
2019,04,02,00,04,9.30
2019,04,02,00,05,9.30
2019,04,02,00,06,9.20
2019,04,02,00,07,9.20
2019,04,02,00,08,9.20
2019,04,02,00,09,9.20
2019,04,02,00,10,9.10
2019,04,02,00,11,9.10
2019,04,02,00,12,9.10
2019,04,02,00,13,9.10
2019,04,02,00,14,9.00
2019,04,02,00,15,9.00
2019,04,02,00,16,8.90
2019,04,02,00,17,8.90
2019,04,02,00,18,8.90
2019,04,02,00,19,8.90
2019,04,02,00,20,8.80
2019,04,02,00,21,8.80
2019,04,02,00,22,8.80
2019,04,02,00,23,8.80
2019,04,02,00,24,8.70
2019,04,02,00,25,8.70
2019,04,02,00,26,8.70
2019,04,02,00,27,8.70
2019,04,02,00,28,8.70
2019,04,02,00,29,8.70
2019,04,02,00,30,8.70
2019,04,02,00,31,8.60
2019,04,02,00,32,8.60
2019,04,02,00,33,8.60
2019,04,02,00,34,8.60
2019,04,02,00,35,8.60
2019,04,02,00,36,8.60
2019,04,02,00,37,8.70
2019,04,02,00,38,8.70
2019,04,02,00,39,8.70
2019,04,02,00,40,8.70
2019,04,02,00,41,8.70
2019,04,02,00,42,8.70
2019,04,02,00,43,8.70
2019,04,02,00,44,8.70
2019,04,02,00,45,8.70
2019,04,02,00,46,8.70
2019,04,02,00,47,8.70
2019,04,02,00,48,8.70
2019,04,02,00,49,8.70
2019,04,02,00,50,8.70
2019,04,02,00,51,8.70
2019,04,02,00,52,8.70
2019,04,02,00,53,8.80
2019,04,02,00,54,8.80
2019,04,02,00,55,8.80
2019,04,02,00,56,8.90
2019,04,02,00,57,8.90
2019,04,02,00,58,8.90
2019,04,02,00,59,8.90
2019,04,02,01,00,9.00
2019,04,02,01,01,9.00
2019,04,02,01,02,9.00
2019,04,02,01,03,9.00
2019,04,02,01,04,9.00
2019,04,02,01,05,9.00
2019,04,02,01,06,9.00
2019,04,02,01,07,9.00
2019,04,02,01,08,8.90
2019,04,02,01,09,8.90
2019,04,02,01,10,8.90
2019,04,02,01,11,8.90
2019,04,02,01,12,8.90
2019,04,02,01,13,8.90
2019,04,02,01,14,8.90
2019,04,02,01,15,8.90
2019,04,02,01,16,8.90
2019,04,02,01,17,8.90
2019,04,02,01,18,8.90
2019,04,02,01,19,8.90
2019,04,02,01,20,8.90
2019,04,02,01,21,8.90
2019,04,02,01,22,8.90
2019,04,02,01,23,8.90
2019,04,02,01,24,8.90
2019,04,02,01,25,8.90
2019,04,02,01,26,8.80
2019,04,02,01,27,8.80
2019,04,02,01,28,8.80
2019,04,02,01,29,8.80
2019,04,02,01,30,8.80
2019,04,02,01,31,8.80
2019,04,02,01,32,8.80
2019,04,02,01,33,8.80
2019,04,02,01,34,8.80
2019,04,02,01,35,8.70
2019,04,02,01,36,8.70
2019,04,02,01,37,8.80
2019,04,02,01,38,8.90
2019,04,02,01,39,8.90
2019,04,02,01,40,9.00
2019,04,02,01,41,9.00
2019,04,02,01,42,9.00
2019,04,02,01,43,8.90
2019,04,02,01,44,8.90
2019,04,02,01,45,8.90
2019,04,02,01,46,8.90
2019,04,02,01,47,8.90
2019,04,02,01,48,8.90
2019,04,02,01,49,8.90
2019,04,02,01,50,8.80
2019,04,02,01,51,8.80
2019,04,02,01,52,8.80
2019,04,02,01,53,8.80
2019,04,02,01,54,8.80
2019,04,02,01,55,8.80
2019,04,02,01,56,8.80
2019,04,02,01,57,8.80
2019,04,02,01,58,8.80
2019,04,02,01,59,8.80
2019,04,02,02,00,8.80
2019,04,02,02,01,8.80
2019,04,02,02,02,8.80
2019,04,02,02,03,8.80
2019,04,02,02,04,8.80
2019,04,02,02,05,8.80
2019,04,02,02,06,8.80
2019,04,02,02,07,8.80
2019,04,02,02,08,8.80
2019,04,02,02,09,8.80
2019,04,02,02,10,8.80
2019,04,02,02,11,8.80
2019,04,02,02,12,8.80
2019,04,02,02,13,8.80
2019,04,02,02,14,8.70
2019,04,02,02,15,8.70
2019,04,02,02,16,8.70
2019,04,02,02,17,8.60
2019,04,02,02,18,8.60
2019,04,02,02,19,8.60
2019,04,02,02,20,8.60
2019,04,02,02,21,8.60
2019,04,02,02,22,8.60
2019,04,02,02,23,8.70
2019,04,02,02,24,8.70
2019,04,02,02,25,8.70
2019,04,02,02,26,8.80
2019,04,02,02,27,8.80
2019,04,02,02,28,8.80
2019,04,02,02,29,8.90
2019,04,02,02,30,8.90
2019,04,02,02,31,9.00
2019,04,02,02,32,9.10
2019,04,02,02,33,9.20
2019,04,02,02,34,9.30
2019,04,02,02,35,9.40
2019,04,02,02,36,9.60
2019,04,02,02,37,9.80
2019,04,02,02,38,10.00
2019,04,02,02,39,10.10
2019,04,02,02,40,10.30
2019,04,02,02,41,10.40
2019,04,02,02,42,10.50
2019,04,02,02,43,10.70
2019,04,02,02,44,10.80
2019,04,02,02,45,10.90
2019,04,02,02,46,11.00
2019,04,02,02,47,11.10
2019,04,02,02,48,11.10
2019,04,02,02,49,11.20
2019,04,02,02,50,11.30
2019,04,02,02,51,11.40
2019,04,02,02,52,11.50
2019,04,02,02,53,11.50
2019,04,02,02,54,11.60
2019,04,02,02,55,11.60
2019,04,02,02,56,11.60
2019,04,02,02,57,11.60
2019,04,02,02,58,11.60
2019,04,02,02,59,11.60
2019,04,02,03,00,11.60
2019,04,02,03,01,11.60
2019,04,02,03,02,11.60
2019,04,02,03,03,11.60
2019,04,02,03,04,11.60
2019,04,02,03,05,11.60
2019,04,02,03,06,11.60
2019,04,02,03,07,11.60
2019,04,02,03,08,11.60
2019,04,02,03,09,11.60
2019,04,02,03,10,11.60
2019,04,02,03,11,11.60
2019,04,02,03,12,11.50
2019,04,02,03,13,11.50
2019,04,02,03,14,11.50
2019,04,02,03,15,11.40
2019,04,02,03,16,11.40
2019,04,02,03,17,11.30
2019,04,02,03,18,11.20
2019,04,02,03,19,11.20
2019,04,02,03,20,11.20
2019,04,02,03,21,11.20
2019,04,02,03,22,11.20
2019,04,02,03,23,11.20
2019,04,02,03,24,11.20
2019,04,02,03,25,11.20
2019,04,02,03,26,11.20
2019,04,02,03,27,11.20
2019,04,02,03,28,11.20
2019,04,02,03,29,11.30
2019,04,02,03,30,11.30
2019,04,02,03,31,11.30
2019,04,02,03,32,11.20
2019,04,02,03,33,11.20
2019,04,02,03,34,11.20
2019,04,02,03,35,11.20
2019,04,02,03,36,11.20
2019,04,02,03,37,11.20
2019,04,02,03,38,11.30
2019,04,02,03,39,11.30
2019,04,02,03,40,11.40
2019,04,02,03,41,11.40
2019,04,02,03,42,11.50
2019,04,02,03,43,11.50
2019,04,02,03,44,11.60
2019,04,02,03,45,11.60
2019,04,02,03,46,11.60
2019,04,02,03,47,11.60
2019,04,02,03,48,11.60
2019,04,02,03,49,11.70
2019,04,02,03,50,11.70
2019,04,02,03,51,11.80
2019,04,02,03,52,11.90
2019,04,02,03,53,11.90
2019,04,02,03,54,11.90
2019,04,02,03,55,11.90
2019,04,02,03,56,11.90
2019,04,02,03,57,12.00
2019,04,02,03,58,12.00
2019,04,02,03,59,12.00
2019,04,02,04,00,12.10
2019,04,02,04,01,12.10
2019,04,02,04,02,12.20
2019,04,02,04,03,12.30
2019,04,02,04,04,12.40
2019,04,02,04,05,12.50
2019,04,02,04,06,12.50
2019,04,02,04,07,12.60
2019,04,02,04,08,12.60
2019,04,02,04,09,12.60
2019,04,02,04,10,12.60
2019,04,02,04,11,12.60
2019,04,02,04,12,12.70
2019,04,02,04,13,12.70
2019,04,02,04,14,12.80
2019,04,02,04,15,12.80
2019,04,02,04,16,12.80
2019,04,02,04,17,12.90
2019,04,02,04,18,12.90
2019,04,02,04,19,13.00
2019,04,02,04,20,13.00
2019,04,02,04,21,13.10
2019,04,02,04,22,13.10
2019,04,02,04,23,13.10
2019,04,02,04,24,13.10
2019,04,02,04,25,13.10
2019,04,02,04,26,13.10
2019,04,02,04,27,13.20
2019,04,02,04,28,13.10
2019,04,02,04,29,13.10
2019,04,02,04,30,13.10
2019,04,02,04,31,13.10
2019,04,02,04,32,13.10
2019,04,02,04,33,13.10
2019,04,02,04,34,13.10
2019,04,02,04,35,13.10
2019,04,02,04,36,13.20
2019,04,02,04,37,13.20
2019,04,02,04,38,13.10
2019,04,02,04,39,13.10
2019,04,02,04,40,13.10
2019,04,02,04,41,13.10
2019,04,02,04,42,13.10
2019,04,02,04,43,13.10
2019,04,02,04,44,13.10
2019,04,02,04,45,13.10
2019,04,02,04,46,13.10
2019,04,02,04,47,13.10
2019,04,02,04,48,13.10
2019,04,02,04,49,13.10
2019,04,02,04,50,13.10
2019,04,02,04,51,13.10
2019,04,02,04,52,13.10
2019,04,02,04,53,13.00
2019,04,02,04,54,13.00
2019,04,02,04,55,13.00
2019,04,02,04,56,13.00
2019,04,02,04,57,13.00
2019,04,02,04,58,13.00
2019,04,02,04,59,13.00
2019,04,02,05,00,13.00
2019,04,02,05,01,13.00
2019,04,02,05,02,12.90
2019,04,02,05,03,12.90
2019,04,02,05,04,12.90
2019,04,02,05,05,12.90
2019,04,02,05,06,12.80
2019,04,02,05,07,12.80
2019,04,02,05,08,12.80
2019,04,02,05,09,12.90
2019,04,02,05,10,12.90
2019,04,02,05,11,12.90
2019,04,02,05,12,13.00
2019,04,02,05,13,13.00
2019,04,02,05,14,13.00
2019,04,02,05,15,13.00
2019,04,02,05,16,13.00
2019,04,02,05,17,13.00
2019,04,02,05,18,12.90
2019,04,02,05,19,12.90
2019,04,02,05,20,12.90
2019,04,02,05,21,12.90
2019,04,02,05,22,12.90
2019,04,02,05,23,12.90
2019,04,02,05,24,12.90
2019,04,02,05,25,12.90
2019,04,02,05,26,12.80
2019,04,02,05,27,12.80
2019,04,02,05,28,12.80
2019,04,02,05,29,12.70
2019,04,02,05,30,12.60
2019,04,02,05,31,12.60
2019,04,02,05,32,12.50
2019,04,02,05,33,12.50
2019,04,02,05,34,12.40
2019,04,02,05,35,12.30
2019,04,02,05,36,12.30
2019,04,02,05,37,12.20
2019,04,02,05,38,12.20
2019,04,02,05,39,12.10
2019,04,02,05,40,12.10
2019,04,02,05,41,12.20
2019,04,02,05,42,12.20
2019,04,02,05,43,12.30
2019,04,02,05,44,12.30
2019,04,02,05,45,12.30
2019,04,02,05,46,12.40
2019,04,02,05,47,12.40
2019,04,02,05,48,12.40
2019,04,02,05,49,12.50
2019,04,02,05,50,12.60
2019,04,02,05,51,12.60
2019,04,02,05,52,12.70
2019,04,02,05,53,12.70
2019,04,02,05,54,12.60
2019,04,02,05,55,12.60
2019,04,02,05,56,12.60
2019,04,02,05,57,12.60
2019,04,02,05,58,12.60
2019,04,02,05,59,12.60
2019,04,02,06,00,12.70
2019,04,02,06,01,12.70
2019,04,02,06,02,12.70
2019,04,02,06,03,12.70
2019,04,02,06,04,12.70
2019,04,02,06,05,12.80
2019,04,02,06,06,12.80
2019,04,02,06,07,12.80
2019,04,02,06,08,12.80
2019,04,02,06,09,12.80
2019,04,02,06,10,12.80
2019,04,02,06,11,12.80
2019,04,02,06,12,12.80
2019,04,02,06,13,12.80
2019,04,02,06,14,12.80
2019,04,02,06,15,12.70
2019,04,02,06,16,12.70
2019,04,02,06,17,12.60
2019,04,02,06,18,12.60
2019,04,02,06,19,12.50
2019,04,02,06,20,12.50
2019,04,02,06,21,12.40
2019,04,02,06,22,12.40
2019,04,02,06,23,12.30
2019,04,02,06,24,12.30
2019,04,02,06,25,12.20
2019,04,02,06,26,12.20
2019,04,02,06,27,12.10
2019,04,02,06,28,12.10
2019,04,02,06,29,12.10
2019,04,02,06,30,12.00
2019,04,02,06,31,12.00
2019,04,02,06,32,12.00
2019,04,02,06,33,12.00
2019,04,02,06,34,11.90
2019,04,02,06,35,11.90
2019,04,02,06,36,12.00
2019,04,02,06,37,11.90
2019,04,02,06,38,11.90
2019,04,02,06,39,11.90
2019,04,02,06,40,11.90
2019,04,02,06,41,11.90
2019,04,02,06,42,11.90
2019,04,02,06,43,11.90
2019,04,02,06,44,11.90
2019,04,02,06,45,11.90
2019,04,02,06,46,11.90
2019,04,02,06,47,11.90
2019,04,02,06,48,11.90
2019,04,02,06,49,11.90
2019,04,02,06,50,11.90
2019,04,02,06,51,11.90
2019,04,02,06,52,11.90
2019,04,02,06,53,11.90
2019,04,02,06,54,11.80
2019,04,02,06,55,11.80
2019,04,02,06,56,11.80
2019,04,02,06,57,11.80
2019,04,02,06,58,11.80
2019,04,02,06,59,11.70
2019,04,02,07,00,11.70
2019,04,02,07,01,11.70
2019,04,02,07,02,11.60
2019,04,02,07,03,11.50
2019,04,02,07,04,11.40
2019,04,02,07,05,11.40
2019,04,02,07,06,11.40
2019,04,02,07,07,11.40
2019,04,02,07,08,11.40
2019,04,02,07,09,11.40
2019,04,02,07,10,11.40
2019,04,02,07,11,11.40
2019,04,02,07,12,11.30
2019,04,02,07,13,11.30
2019,04,02,07,14,11.20
2019,04,02,07,15,11.20
2019,04,02,07,16,11.20
2019,04,02,07,17,11.20
2019,04,02,07,18,11.10
2019,04,02,07,19,11.10
2019,04,02,07,20,11.10
2019,04,02,07,21,11.00
2019,04,02,07,22,11.00
2019,04,02,07,23,11.00
2019,04,02,07,24,11.00
2019,04,02,07,25,11.00
2019,04,02,07,26,11.00
2019,04,02,07,27,11.00
2019,04,02,07,28,11.00
2019,04,02,07,29,11.00
2019,04,02,07,30,11.10
2019,04,02,07,31,11.10
2019,04,02,07,32,11.10
2019,04,02,07,33,11.10
2019,04,02,07,34,11.10
2019,04,02,07,35,11.10
2019,04,02,07,36,11.00
2019,04,02,07,37,11.00
2019,04,02,07,38,10.90
2019,04,02,07,39,10.90
2019,04,02,07,40,11.00
2019,04,02,07,41,11.00
2019,04,02,07,42,11.10
2019,04,02,07,43,11.10
2019,04,02,07,44,11.10
2019,04,02,07,45,11.10
2019,04,02,07,46,11.20
2019,04,02,07,47,11.30
2019,04,02,07,48,11.30
2019,04,02,07,49,11.40
2019,04,02,07,50,11.50
2019,04,02,07,51,11.50
2019,04,02,07,52,11.60
2019,04,02,07,53,11.60
2019,04,02,07,54,11.70
2019,04,02,07,55,11.70
2019,04,02,07,56,11.80
2019,04,02,07,57,11.80
2019,04,02,07,58,11.90
2019,04,02,07,59,11.90
2019,04,02,08,00,12.00
2019,04,02,08,01,12.10
2019,04,02,08,02,12.10
2019,04,02,08,03,12.20
2019,04,02,08,04,12.30
2019,04,02,08,05,12.40
2019,04,02,08,06,12.50
2019,04,02,08,07,12.60
2019,04,02,08,08,12.60
2019,04,02,08,09,12.70
2019,04,02,08,10,12.80
2019,04,02,08,11,12.80
2019,04,02,08,12,12.90
2019,04,02,08,13,13.00
2019,04,02,08,14,13.10
2019,04,02,08,15,13.10
2019,04,02,08,16,13.20
2019,04,02,08,17,13.20
2019,04,02,08,18,13.30
2019,04,02,08,19,13.30
2019,04,02,08,20,13.40
2019,04,02,08,21,13.50
2019,04,02,08,22,13.50
2019,04,02,08,23,13.60
2019,04,02,08,24,13.70
2019,04,02,08,25,13.70
2019,04,02,08,26,13.80
2019,04,02,08,27,13.80
2019,04,02,08,28,13.80
2019,04,02,08,29,13.90
2019,04,02,08,30,13.90
2019,04,02,08,31,14.00
2019,04,02,08,32,14.00
2019,04,02,08,33,14.00
2019,04,02,08,34,14.00
2019,04,02,08,35,14.00
2019,04,02,08,36,14.10
2019,04,02,08,37,14.10
2019,04,02,08,38,14.10
2019,04,02,08,39,14.10
2019,04,02,08,40,14.20
2019,04,02,08,41,14.20
2019,04,02,08,42,14.20
2019,04,02,08,43,14.20
2019,04,02,08,44,14.30
2019,04,02,08,45,14.30
2019,04,02,08,46,14.30
2019,04,02,08,47,14.30
2019,04,02,08,48,14.30
2019,04,02,08,49,14.30
2019,04,02,08,50,14.40
2019,04,02,08,51,14.40
2019,04,02,08,52,14.40
2019,04,02,08,53,14.40
2019,04,02,08,54,14.40
2019,04,02,08,55,14.40
2019,04,02,08,56,14.50
2019,04,02,08,57,14.50
2019,04,02,08,58,14.60
2019,04,02,08,59,14.60
2019,04,02,09,00,14.60
2019,04,02,09,01,14.60
2019,04,02,09,02,14.60
2019,04,02,09,03,14.60
2019,04,02,09,04,14.60
2019,04,02,09,05,14.60
2019,04,02,09,06,14.60
2019,04,02,09,07,14.70
2019,04,02,09,08,14.70
2019,04,02,09,09,14.70
2019,04,02,09,10,14.70
2019,04,02,09,11,14.70
2019,04,02,09,12,14.70
2019,04,02,09,13,14.70
2019,04,02,09,14,14.70
2019,04,02,09,15,14.80
2019,04,02,09,16,14.80
2019,04,02,09,17,14.80
2019,04,02,09,18,14.80
2019,04,02,09,19,14.80
2019,04,02,09,20,14.80
2019,04,02,09,21,14.80
2019,04,02,09,22,14.80
2019,04,02,09,23,14.90
2019,04,02,09,24,14.90
2019,04,02,09,25,15.00
2019,04,02,09,26,15.00
2019,04,02,09,27,15.10
2019,04,02,09,28,15.10
2019,04,02,09,29,15.10
2019,04,02,09,30,15.10
2019,04,02,09,31,15.20
2019,04,02,09,32,15.20
2019,04,02,09,33,15.30
2019,04,02,09,34,15.30
2019,04,02,09,35,15.30
2019,04,02,09,36,15.30
2019,04,02,09,37,15.30
2019,04,02,09,38,15.30
2019,04,02,09,39,15.30
2019,04,02,09,40,15.30
2019,04,02,09,41,15.30
2019,04,02,09,42,15.30
2019,04,02,09,43,15.30
2019,04,02,09,44,15.30
2019,04,02,09,45,15.40
2019,04,02,09,46,15.40
2019,04,02,09,47,15.50
2019,04,02,09,48,15.50
2019,04,02,09,49,15.50
2019,04,02,09,50,15.60
2019,04,02,09,51,15.60
2019,04,02,09,52,15.60
2019,04,02,09,53,15.70
2019,04,02,09,54,15.70
2019,04,02,09,55,15.70
2019,04,02,09,56,15.70
2019,04,02,09,57,15.70
2019,04,02,09,58,15.70
2019,04,02,09,59,15.70
2019,04,02,10,00,15.70
2019,04,02,10,01,15.80
2019,04,02,10,02,15.80
2019,04,02,10,03,15.70
2019,04,02,10,04,15.70
2019,04,02,10,05,15.70
2019,04,02,10,06,15.60
2019,04,02,10,07,15.60
2019,04,02,10,08,15.60
2019,04,02,10,09,15.60
2019,04,02,10,10,15.60
2019,04,02,10,11,15.60
2019,04,02,10,12,15.60
2019,04,02,10,13,15.60
2019,04,02,10,14,15.60
2019,04,02,10,15,15.50
2019,04,02,10,16,15.50
2019,04,02,10,17,15.50
2019,04,02,10,18,15.50
2019,04,02,10,19,15.60
2019,04,02,10,20,15.60
2019,04,02,10,21,15.60
2019,04,02,10,22,15.60
2019,04,02,10,23,15.60
2019,04,02,10,24,15.70
2019,04,02,10,25,15.60
2019,04,02,10,26,15.70
2019,04,02,10,27,15.70
2019,04,02,10,28,15.70
2019,04,02,10,29,15.70
2019,04,02,10,30,15.70
2019,04,02,10,31,15.70
2019,04,02,10,32,15.60
2019,04,02,10,33,15.60
2019,04,02,10,34,15.70
2019,04,02,10,35,15.70
2019,04,02,10,36,15.70
2019,04,02,10,37,15.70
2019,04,02,10,38,15.70
2019,04,02,10,39,15.70
2019,04,02,10,40,15.80
2019,04,02,10,41,15.80
2019,04,02,10,42,15.80
2019,04,02,10,43,15.90
2019,04,02,10,44,15.90
2019,04,02,10,45,15.90
2019,04,02,10,46,15.90
2019,04,02,10,47,15.90
2019,04,02,10,48,15.90
2019,04,02,10,49,15.90
2019,04,02,10,50,16.00
2019,04,02,10,51,16.00
2019,04,02,10,52,16.00
2019,04,02,10,53,16.00
2019,04,02,10,54,16.10
2019,04,02,10,55,16.10
2019,04,02,10,56,16.20
2019,04,02,10,57,16.20
2019,04,02,10,58,16.20
2019,04,02,10,59,16.20
2019,04,02,11,00,16.20
2019,04,02,11,01,16.20
2019,04,02,11,02,16.30
2019,04,02,11,03,16.40
2019,04,02,11,04,16.40
2019,04,02,11,05,16.30
2019,04,02,11,06,16.20
2019,04,02,11,07,16.20
2019,04,02,11,08,16.20
2019,04,02,11,09,16.20
2019,04,02,11,10,16.20
2019,04,02,11,11,16.30
2019,04,02,11,12,16.30
2019,04,02,11,13,16.30
2019,04,02,11,14,16.30
2019,04,02,11,15,16.30
2019,04,02,11,16,16.20
2019,04,02,11,17,16.30
2019,04,02,11,18,16.30
2019,04,02,11,19,16.40
2019,04,02,11,20,16.40
2019,04,02,11,21,16.40
2019,04,02,11,22,16.40
2019,04,02,11,23,16.40
2019,04,02,11,24,16.40
2019,04,02,11,25,16.40
2019,04,02,11,26,16.40
2019,04,02,11,27,16.40
2019,04,02,11,28,16.40
2019,04,02,11,29,16.40
2019,04,02,11,30,16.50
2019,04,02,11,31,16.40
2019,04,02,11,32,16.40
2019,04,02,11,33,16.40
2019,04,02,11,34,16.40
2019,04,02,11,35,16.40
2019,04,02,11,36,16.40
2019,04,02,11,37,16.40
2019,04,02,11,38,16.40
2019,04,02,11,39,16.40
2019,04,02,11,40,16.40
2019,04,02,11,41,16.50
2019,04,02,11,42,16.50
2019,04,02,11,43,16.60
2019,04,02,11,44,16.70
2019,04,02,11,45,16.80
2019,04,02,11,46,16.80
2019,04,02,11,47,16.90
2019,04,02,11,48,16.90
2019,04,02,11,49,16.90
2019,04,02,11,50,16.90
2019,04,02,11,51,16.90
2019,04,02,11,52,16.80
2019,04,02,11,53,16.80
2019,04,02,11,54,16.80
2019,04,02,11,55,16.80
2019,04,02,11,56,16.90
2019,04,02,11,57,16.90
2019,04,02,11,58,16.90
2019,04,02,11,59,16.80
2019,04,02,12,00,16.80
2019,04,02,12,01,16.80
2019,04,02,12,02,16.80
2019,04,02,12,03,16.80
2019,04,02,12,04,16.80
2019,04,02,12,05,16.70
2019,04,02,12,06,16.70
2019,04,02,12,07,16.70
2019,04,02,12,08,16.80
2019,04,02,12,09,16.80
2019,04,02,12,10,16.80
2019,04,02,12,11,16.90
2019,04,02,12,12,17.00
2019,04,02,12,13,17.10
2019,04,02,12,14,17.00
2019,04,02,12,15,17.00
2019,04,02,12,16,17.00
2019,04,02,12,17,17.00
2019,04,02,12,18,17.00
2019,04,02,12,19,16.90
2019,04,02,12,20,17.00
2019,04,02,12,21,17.00
2019,04,02,12,22,17.00
2019,04,02,12,23,17.10
2019,04,02,12,24,17.10
2019,04,02,12,25,17.10
2019,04,02,12,26,17.10
2019,04,02,12,27,17.00
2019,04,02,12,28,17.00
2019,04,02,12,29,17.00
2019,04,02,12,30,17.00
2019,04,02,12,31,17.10
2019,04,02,12,32,17.20
2019,04,02,12,33,17.20
2019,04,02,12,34,17.30
2019,04,02,12,35,17.30
2019,04,02,12,36,17.40
2019,04,02,12,37,17.50
2019,04,02,12,38,17.50
2019,04,02,12,39,17.50
2019,04,02,12,40,17.40
2019,04,02,12,41,17.40
2019,04,02,12,42,17.40
2019,04,02,12,43,17.40
2019,04,02,12,44,17.50
2019,04,02,12,45,17.50
2019,04,02,12,46,17.60
2019,04,02,12,47,17.60
2019,04,02,12,48,17.70
2019,04,02,12,49,17.80
2019,04,02,12,50,17.70
2019,04,02,12,51,17.70
2019,04,02,12,52,17.70
2019,04,02,12,53,17.60
2019,04,02,12,54,17.60
2019,04,02,12,55,17.60
2019,04,02,12,56,17.60
2019,04,02,12,57,17.60
2019,04,02,12,58,17.60
2019,04,02,12,59,17.60
2019,04,02,13,00,17.60
2019,04,02,13,01,17.60
2019,04,02,13,02,17.60
2019,04,02,13,03,17.60
2019,04,02,13,04,17.60
2019,04,02,13,05,17.70
2019,04,02,13,06,17.80
2019,04,02,13,07,17.80
2019,04,02,13,08,17.80
2019,04,02,13,09,17.80
2019,04,02,13,10,17.80
2019,04,02,13,11,17.80
2019,04,02,13,12,17.80
2019,04,02,13,13,17.90
2019,04,02,13,14,18.00
2019,04,02,13,15,18.10
2019,04,02,13,16,18.10
2019,04,02,13,17,18.10
2019,04,02,13,18,18.10
2019,04,02,13,19,18.00
2019,04,02,13,20,18.00
2019,04,02,13,21,17.90
2019,04,02,13,22,17.90
2019,04,02,13,23,17.90
2019,04,02,13,24,18.00
2019,04,02,13,25,18.10
2019,04,02,13,26,18.10
2019,04,02,13,27,18.10
2019,04,02,13,28,18.10
2019,04,02,13,29,18.20
2019,04,02,13,30,18.20
2019,04,02,13,31,18.20
2019,04,02,13,32,18.20
2019,04,02,13,33,18.20
2019,04,02,13,34,18.20
2019,04,02,13,35,18.20
2019,04,02,13,36,18.20
2019,04,02,13,37,18.10
2019,04,02,13,38,18.00
2019,04,02,13,39,18.00
2019,04,02,13,40,17.90
2019,04,02,13,41,17.90
2019,04,02,13,42,17.90
2019,04,02,13,43,18.00
2019,04,02,13,44,18.10
2019,04,02,13,45,18.20
2019,04,02,13,46,18.20
2019,04,02,13,47,18.30
2019,04,02,13,48,18.30
2019,04,02,13,49,18.20
2019,04,02,13,50,18.20
2019,04,02,13,51,18.20
2019,04,02,13,52,18.20
2019,04,02,13,53,18.20
2019,04,02,13,54,18.20
2019,04,02,13,55,18.10
2019,04,02,13,56,18.10
2019,04,02,13,57,18.10
2019,04,02,13,58,18.10
2019,04,02,13,59,18.10
2019,04,02,14,00,18.10
2019,04,02,14,01,18.10
2019,04,02,14,02,18.10
2019,04,02,14,03,18.20
2019,04,02,14,04,18.20
2019,04,02,14,05,18.20
2019,04,02,14,06,18.30
2019,04,02,14,07,18.30
2019,04,02,14,08,18.30
2019,04,02,14,09,18.30
2019,04,02,14,10,18.30
2019,04,02,14,11,18.40
2019,04,02,14,12,18.40
2019,04,02,14,13,18.50
2019,04,02,14,14,18.50
2019,04,02,14,15,18.50
2019,04,02,14,16,18.50
2019,04,02,14,17,18.50
2019,04,02,14,18,18.50
2019,04,02,14,19,18.50
2019,04,02,14,20,18.50
2019,04,02,14,21,18.50
2019,04,02,14,22,18.50
2019,04,02,14,23,18.50
2019,04,02,14,24,18.50
2019,04,02,14,25,18.40
2019,04,02,14,26,18.40
2019,04,02,14,27,18.40
2019,04,02,14,28,18.30
2019,04,02,14,29,18.30
2019,04,02,14,30,18.30
2019,04,02,14,31,18.40
2019,04,02,14,32,18.40
2019,04,02,14,33,18.40
2019,04,02,14,34,18.50
2019,04,02,14,35,18.50
2019,04,02,14,36,18.40
2019,04,02,14,37,18.40
2019,04,02,14,38,18.40
2019,04,02,14,39,18.40
2019,04,02,14,40,18.30
2019,04,02,14,41,18.30
2019,04,02,14,42,18.30
2019,04,02,14,43,18.30
2019,04,02,14,44,18.40
2019,04,02,14,45,18.40
2019,04,02,14,46,18.40
2019,04,02,14,47,18.40
2019,04,02,14,48,18.40
2019,04,02,14,49,18.40
2019,04,02,14,50,18.30
2019,04,02,14,51,18.30
2019,04,02,14,52,18.30
2019,04,02,14,53,18.30
2019,04,02,14,54,18.30
2019,04,02,14,55,18.40
2019,04,02,14,56,18.40
2019,04,02,14,57,18.40
2019,04,02,14,58,18.40
2019,04,02,14,59,18.40
2019,04,02,15,00,18.30
2019,04,02,15,01,18.30
2019,04,02,15,02,18.30
2019,04,02,15,03,18.30
2019,04,02,15,04,18.30
2019,04,02,15,05,18.30
2019,04,02,15,06,18.40
2019,04,02,15,07,18.40
2019,04,02,15,08,18.40
2019,04,02,15,09,18.40
2019,04,02,15,10,18.40
2019,04,02,15,11,18.40
2019,04,02,15,12,18.30
2019,04,02,15,13,18.30
2019,04,02,15,14,18.30
2019,04,02,15,15,18.30
2019,04,02,15,16,18.30
2019,04,02,15,17,18.30
2019,04,02,15,18,18.20
2019,04,02,15,19,18.30
2019,04,02,15,20,18.30
2019,04,02,15,21,18.30
2019,04,02,15,22,18.40
2019,04,02,15,23,18.40
2019,04,02,15,24,18.40
2019,04,02,15,25,18.40
2019,04,02,15,26,18.40
2019,04,02,15,27,18.40
2019,04,02,15,28,18.50
2019,04,02,15,29,18.40
2019,04,02,15,30,18.40
2019,04,02,15,31,18.40
2019,04,02,15,32,18.40
2019,04,02,15,33,18.40
2019,04,02,15,34,18.40
2019,04,02,15,35,18.30
2019,04,02,15,36,18.30
2019,04,02,15,37,18.30
2019,04,02,15,38,18.30
2019,04,02,15,39,18.30
2019,04,02,15,40,18.30
2019,04,02,15,41,18.30
2019,04,02,15,42,18.30
2019,04,02,15,43,18.30
2019,04,02,15,44,18.30
2019,04,02,15,45,18.30
2019,04,02,15,46,18.30
2019,04,02,15,47,18.30
2019,04,02,15,48,18.30
2019,04,02,15,49,18.30
2019,04,02,15,50,18.30
2019,04,02,15,51,18.30
2019,04,02,15,52,18.30
2019,04,02,15,53,18.30
2019,04,02,15,54,18.30
2019,04,02,15,55,18.30
2019,04,02,15,56,18.30
2019,04,02,15,57,18.30
2019,04,02,15,58,18.30
2019,04,02,15,59,18.30
2019,04,02,16,00,18.30
2019,04,02,16,01,18.30
2019,04,02,16,02,18.30
2019,04,02,16,03,18.30
2019,04,02,16,04,18.30
2019,04,02,16,05,18.30
2019,04,02,16,06,18.30
2019,04,02,16,07,18.30
2019,04,02,16,08,18.30
2019,04,02,16,09,18.30
2019,04,02,16,10,18.30
2019,04,02,16,11,18.30
2019,04,02,16,12,18.30
2019,04,02,16,13,18.30
2019,04,02,16,14,18.30
2019,04,02,16,15,18.30
2019,04,02,16,16,18.30
2019,04,02,16,17,18.30
2019,04,02,16,18,18.30
2019,04,02,16,19,18.30
2019,04,02,16,20,18.30
2019,04,02,16,21,18.30
2019,04,02,16,22,18.30
2019,04,02,16,23,18.30
2019,04,02,16,24,18.30
2019,04,02,16,25,18.30
2019,04,02,16,26,18.30
2019,04,02,16,27,18.30
2019,04,02,16,28,18.30
2019,04,02,16,29,18.30
2019,04,02,16,30,18.30
2019,04,02,16,31,18.30
2019,04,02,16,32,18.30
2019,04,02,16,33,18.30
2019,04,02,16,34,18.30
2019,04,02,16,35,18.30
2019,04,02,16,36,18.30
2019,04,02,16,37,18.40
2019,04,02,16,38,18.40
2019,04,02,16,39,18.40
2019,04,02,16,40,18.40
2019,04,02,16,41,18.40
2019,04,02,16,42,18.30
2019,04,02,16,43,18.30
2019,04,02,16,44,18.30
2019,04,02,16,45,18.30
2019,04,02,16,46,18.30
2019,04,02,16,47,18.30
2019,04,02,16,48,18.30
2019,04,02,16,49,18.30
2019,04,02,16,50,18.30
2019,04,02,16,51,18.30
2019,04,02,16,52,18.30
2019,04,02,16,53,18.30
2019,04,02,16,54,18.30
2019,04,02,16,55,18.30
2019,04,02,16,56,18.30
2019,04,02,16,57,18.30
2019,04,02,16,58,18.30
2019,04,02,16,59,18.30
2019,04,02,17,00,18.30
2019,04,02,17,01,18.30
2019,04,02,17,02,18.30
2019,04,02,17,03,18.30
2019,04,02,17,04,18.30
2019,04,02,17,05,18.30
2019,04,02,17,06,18.40
2019,04,02,17,07,18.40
2019,04,02,17,08,18.40
2019,04,02,17,09,18.40
2019,04,02,17,10,18.40
2019,04,02,17,11,18.40
2019,04,02,17,12,18.50
2019,04,02,17,13,18.50
2019,04,02,17,14,18.50
2019,04,02,17,15,18.50
2019,04,02,17,16,18.60
2019,04,02,17,17,18.60
2019,04,02,17,18,18.60
2019,04,02,17,19,18.60
2019,04,02,17,20,18.60
2019,04,02,17,21,18.60
2019,04,02,17,22,18.60
2019,04,02,17,23,18.60
2019,04,02,17,24,18.50
2019,04,02,17,25,18.50
2019,04,02,17,26,18.40